Overview Statistics Trail Chart Weather Telemetry Raw packets
 

This is the latest recevied weather packets stored in our database for station/object JF7BTK-10. If no packets are shown the sender has not sent any weather packets the latest 10 day(s).

<< 56 57 58 59 60 61 62 >>
Time Temp. Humidity Pressure Rain* Wind** Luminosity Snow
1787956988 22.78° C 76% 1006.1 hPa 0 mm - - -
1787956088 21.67° C 90% 1006.5 hPa 0 mm - - -
1787955188 19.44° C 90% 1006.5 hPa 0 mm - - -
1787954288 18.89° C 90% 1006.8 hPa 0 mm - - -
1787953389 18.89° C 91% 1006.6 hPa 0 mm - - -
1787952489 18.33° C 92% 1006.5 hPa 0 mm - - -
1787951589 18.33° C 93% 1006.5 hPa 0 mm - - -
1787950689 17.78° C 94% 1006.6 hPa 0 mm - - -
1787949789 17.78° C 94% 1006.4 hPa 0 mm - - -
1787948888 17.78° C 94% 1006.5 hPa 0 mm - - -
1787947988 17.78° C 93% 1006.4 hPa 0 mm - - -
1787947088 17.78° C 93% 1006.4 hPa 0 mm - - -
1787946188 17.78° C 93% 1006.5 hPa 0 mm - - -
1787945288 17.78° C 93% 1006.4 hPa 0 mm - - -
1787944389 17.78° C 93% 1006.4 hPa 0 mm - - -
1787943489 17.78° C 92% 1006.4 hPa 0 mm - - -
1787943352 17.78° C 92% 1006.5 hPa 0 mm - - -
1787943052 17.78° C 92% 1006.5 hPa 0 mm - - -
1787942588 17.78° C 92% 1006.3 hPa 0 mm - - -
1787942151 17.78° C 93% 1006.2 hPa 0 mm - - -
1787941851 17.78° C 93% 1006.2 hPa 0 mm - - -
1787941688 17.78° C 93% 1006.1 hPa 0 mm - - -
1787941252 17.78° C 94% 1006.2 hPa 0 mm - - -
1787940789 17.78° C 94% 1006 hPa 0 mm - - -
1787940652 17.78° C 95% 1006.2 hPa 0 mm - - -

* Rain latest hour (hover to see other rain measurements)
** Current wind speed in m/s (hover to see current wind gust speed)